www.pogodaiklimat.ru

Погода и климат >> Архив погоды >> Макао >> Макао


ПОГОДА Макао

  • Прогноз погоды Макао
  • Монитор погоды Макао

АРХИВ ПОГОДЫ Макао

Время (UTC), дата Ветер
(напр.,м/с)
 
Видим.   Явления Облачность Т
(С)
Тd
(С)
f
(%)
Тe
(С)
Тes
(С)
Комфортность P
(гПа)
Po
(гПа)
Тmin
(С)
Tmax
(С)
R
(мм)
R24
(мм)
S
(см)
06 15.04 В 5 9000 м 9/9 300 м
[]
+22.3 +18.5 79 +28 +29 душно 1013.8 1013.1
09 15.04 В 4 5000 м 10/10 300 м
[]
+21.2 +18.7 86 +26 +26 душно 1013.1 1012.4
12 15.04 В 5 4900 м дымка {ливн. осадки, дождь} 9/9 200 м
[]
+20.8 +19.2 91 +25 +25 комфорт 1014.0 1013.3 +22.6 0.2
15 15.04 В 5 6000 м 10/10 200 м
[]
+21.2 +19.4 89 +26 +26 душно 1015.3 1014.6
18 15.04 В 3 5000 м дымка 10/10 100 м
[]
+20.5 +19.5 94 +25 +25 комфорт 1013.8 1013.1
21 15.04 В 3 3600 м в посл. час дождь 9/9 100 м
[]
+19.8 +19.1 96 +23 +23 комфорт 1012.0 1011.3
00 16.04 В 4 7000 м {дождь, дымка} 10/10 100 м
[]
+19.9 +18.7 93 +23 +23 комфорт 1013.0 1012.3 +19.6 1
03 16.04 С 4 900 м гроза 9/9 <50 м
[]
+19.4 +18.8 96 +22 +23 комфорт 1015.2 1014.5
06 16.04 С 1 6000 м в посл. час дождь {гроза} 9/9 <50 м
[]
+20.3 +19.9 98 +26 +28 душно 1011.4 1010.7
09 16.04 СВ 2 14 км 1/0
[]
+23.0 +20.0 83 +30 +33 очень
душно
1011.2 1010.5
12 16.04 С 2 3300 м дымка 9/9 1500 м
[]
+20.8 +20.0 95 +26 +26 душно 1012.0 1011.3 +23.3 31
15 16.04 ЮВ 2 2700 м дымка 8/8 200 м
[]
+21.1 +20.1 94 +26 +26 душно 1013.6 1012.9
18 16.04 Ю 1 2800 м дымка 9/9 200 м
[]
+20.9 +20.0 95 +27 +27 душно 1012.8 1012.1
21 16.04 штиль 0 3600 м дымка 9/9 100 м
[]
+20.6 +19.9 96 +25 +25 комфорт 1012.0 1011.3
00 17.04 В 1 4100 м дымка 9/9 100 м
[]
+22.0 +20.9 93 +28 +29 душно 1013.5 1012.8 +20.5
03 17.04 В 2 9000 м {дымка} 9/9 300 м
[]
+24.7 +20.7 78 +31 +33 очень
душно
1014.5 1013.8
06 17.04 ЮВ 2 20 км {дымка} 10/10 1000 м
[]
+25.2 +21.0 78 +32 +32 очень
душно
1012.1 1011.4
09 17.04 ЮВ 3 20 км 10/10 1000 м
[]
+24.1 +20.1 78 +30 +30 очень
душно
1010.6 1009.9
12 17.04 ЮВ 1 9000 м 9/9 200 м
[]
+22.7 +20.9 90 +30 +30 очень
душно
1011.5 1010.8 +26.5
15 17.04 ЮВ 2 7000 м 9/9 200 м
[]
+22.8 +21.2 91 +30 +30 очень
душно
1012.4 1011.7
18 17.04 ЮВ 2 3900 м дымка 9/9 100 м
[]
+22.4 +21.3 94 +29 +29 очень
душно
1010.8 1010.1
21 17.04 ЮВ 3 4900 м дымка 9/9 200 м
[]
+22.2 +21.2 94 +29 +29 очень
душно
1009.8 1009.1
00 18.04 ЮВ 3 5000 м {дымка} 9/9 200 м
[]
+22.9 +21.8 94 +31 +31 очень
душно
1011.3 1010.6 +22.2
03 18.04 ЮВ 3 7000 м 9/9 100 м
[]
+23.6 +22.1 91 +30 +32 очень
душно
1011.5 1010.8
06 18.04 ЮВ 3 9000 м 10/10 100 м
[]
+23.8 +22.4 92 +31 +31 очень
душно
1008.9 1008.2
09 18.04 ЮВ 4 6000 м в посл. час дождь 10/10 50 м
[]
+23.4 +22.6 95 +32 +32 очень
душно
1006.5 1005.8
12 18.04 ЮВ 4 5000 м гроза {дождь} 9/9 50 м
[]
+21.7 +21.2 97 +28 +28 душно 1008.6 1007.9 +23.9 45
15 18.04 ЮВ 2 9000 м в посл. час дождь {гроза} 9/9 300 м
[]
+21.7 +21.2 97 +28 +28 душно 1009.7 1009.0
18 18.04 Ю 3 8000 м {гроза, ливн. осадки} 9/9 100 м
[]
+22.9 +22.2 96 +31 +31 очень
душно
1008.1 1007.4
21 18.04 Ю 4 4800 м в посл. час туман 10/10 50 м
[]
+24.8 +24.2 96 +34 +34 очень
душно
1006.6 1005.9
00 19.04 Ю 4 300 м туман ?/? +25.3 +24.9 98 +36 +36 очень
душно
1007.4 1006.7 +21.2 9
03 19.04 ЮВ 4 10 км {туман, дымка} 9/9 100 м
[]
+26.4 +25.2 93 +38 +39 очень
душно
1008.1 1007.4
06 19.04 Ю 3 8000 м {туман, дымка} 9/9 100 м
[]
+26.3 +25.0 93 +38 +39 очень
душно
1006.4 1005.7
09 19.04 С 3 600 м слаб. ливневой дождь ?/? +21.8 +21.2 96 +28 +28 душно 1006.0 1005.3
12 19.04 В 3 3700 м слаб. ливневой дождь 9/9 50 м
[]
+21.5 +21.0 97 +27 +27 душно 1007.7 1007.0 +27.4 9
15 19.04 В 3 12 км {ливн. осадки} 10/10 300 м
[]
+21.5 +20.8 96 +27 +27 душно 1008.8 1008.1
18 19.04 В 3 6000 м слаб. морось 10/10 100 м
[]
+22.3 +21.6 96 +29 +29 очень
душно
1008.2 1007.5
21 19.04 ЮВ 2 2000 м дымка 9/9 <50 м
[]
+22.8 +22.3 97 +31 +31 очень
душно
1006.6 1005.9
00 20.04 Ю 3 5000 м {дымка} 10/10 50 м
[]
+23.5 +23.0 97 +31 +31 очень
душно
1007.6 1006.9 +21.4 0.8
03 20.04 Ю 6 9000 м {дымка} 9/9 100 м
[]
+26.0 +25.0 94 +37 +38 очень
душно
1007.1 1006.4
06 20.04 СЗ 5 200 м гроза {туман} ?/? +21.8 +21.0 95 +28 +28 душно 1007.6 1006.9
09 20.04 ЮВ 4 7000 м {гроза, дымка} 9/9 <50 м
[]
+21.8 +21.4 98 +28 +28 душно 1005.6 1004.9
12 20.04 ЮВ 4 11 км {гроза, дымка} 10/10 600 м
[]
+22.2 +21.6 96 +29 +29 очень
душно
1007.2 1006.5 +26.8 46
15 20.04 ЮВ 2 9000 м 10/10 300 м
[]
+22.8 +22.2 96 +31 +31 очень
душно
1008.2 1007.5
18 20.04 Ю 1 11 км 9/9 200 м
[]
+23.1 +22.0 94 +31 +31 очень
душно
1007.4 1006.7
21 20.04 ЮВ 3 5000 м {дождь} 9/9 100 м
[]
+23.5 +22.8 96 +31 +31 очень
душно
1006.6 1005.9
00 21.04 ЮВ 1 3300 м дымка {дождь} 9/9 50 м
[]
+24.1 +23.5 96 +32 +33 очень
душно
1008.7 1008.0 +22.3 0.8
03 21.04 Ю 3 13 км {дымка} 9/9 200 м
[]
+26.6 +25.2 92 +38 +40 очень
душно
1009.0 1008.3
06 21.04 Ю 4 21 км {дождь, дымка} 4/4 300 м
[]
+28.6 +25.0 81 +41 +49 опасность
перегрева
1007.4 1006.7
12 21.04 Ю 4 14 км 9/9 100 м
[]
+26.3 +24.8 91 +37 +37 очень
душно
1008.1 1007.4 +29.0 0.2
15 21.04 Ю 1 12 км 10/10 100 м
[]
+26.1 +24.8 93 +37 +37 очень
душно
1009.8 1009.1
18 21.04 Ю 2 8000 м 9/9 100 м
[]
+25.5 +24.6 95 +36 +36 очень
душно
1008.5 1007.8
21 21.04 ЮВ 1 6000 м 10/10 50 м
[]
+25.1 +24.3 95 +35 +35 очень
душно
1007.8 1007.1
00 22.04 Ю 3 9000 м 10/10 50 м
[]
+25.6 +24.6 94 +36 +36 очень
душно
1009.3 1008.6 +25.1
03 22.04 ЮВ 2 21 км 9/9 200 м
[]
+27.8 +25.1 85 +40 +42 очень
душно
1010.6 1009.9

 

Местоположение метеостанции Макао (Макао): широта 22.15 долгота 113.60 высота над уровнем моря 6 м.

В архиве по умолчанию представлена погода Макао за последнюю неделю. Архивные данные за месяц целиком и за предыдущие месяцы, начиная с января 2011 года, Вы можете получить, выбрав интересующий диапазон дат из раскрывающегося списка и нажав кнопку "Ввод!".


*Определитесь, кто Вы:
робот инопланетянин человек

Внимание! Время в таблицах - всемирное. Для получения местного времени необходимо прибавить поправку, которая равна 8 ч.

Смотрите также архив погоды в соседних городах и на ближайших метеорологических станциях:

Погода в Гонконге (Гонконг) (37 км)
Погода Cheung Chau (Гонконг) (43 км)
Погода Lau Fau Shan (Гонконг) (53 км)
Погода Sha Tin (Гонконг) (68 км)
Погода в Шэньчжэне (Гуандун, Китай) (68 км)
Погода Ta Kwu Ling (Гонконг) (71 км)
Погода на Шанчуан Дао (Гуандун, Китай) (98 км)
Погода в Гуанчжоу (Гуандун, Китай) (117 км)
Погода в Гаояо (Гуандун, Китай) (154 км)
Погода в Янцзяне (Гуандун, Китай) (172 км)

Пояснения к столбцам:

Ветер - указаны скорость ветра в м/с - средняя за 10 мин, порывы в срок и между сроками (в фигурных скобках) и направление, откуда дует ветер: С - северный, СВ - северо-восточный, В - восточный, ЮВ - юго-восточный, Ю - южный, ЮЗ - юго-западный, З - западный, СЗ - северо-западный.
Видимость - горизонтальная дальность видимости в метрах или километрах. При видимости от 1 до 10 км при отсутствии осадков обычно наблюдается дымка, при ухудшении видимости до 1 км и менее - туман. В сухую погоду видимость может ухудшаться дымом, пылью или мглою.
Явления - указаны атмосферные явления, наблюдавшиеся в срок или в последний час перед сроком; фигурными скобками обозначены явления, наблюдавшиеся между сроками (за 1-3 часа до срока); квадратными скобками обозначены град или гололедные отложения с указанием их диаметра в мм.
Облачность - указаны через наклонную черту общая и нижняя облачность в баллах и высота нижней границы облаков в метрах; квадратными скобками обозначены формы облаков: Ci - перистые, Cs - перисто-слоистые, Cc - перисто-кучевые, Ac - высококучевые, As - высокослоистые, Sc - слоисто-кучевые, Ns - слоисто-дождевые, Cu - кучевые, Cb - кучево-дождевые. Подробнее классификацию облаков см. в Атласе облаков (PDF).
T - Температура воздуха - температура, измеренная на высоте 2 м над землей.
Td - Температура точки росы - температура, при понижении до которой содержащийся в воздухе водяной пар достигнет насыщения.
f - Относительная влажность воздуха - влажноcть воздуха, измеренная на высоте 2 м над землей.
Te - Эффективная температура - температура, которую ощущает одетый по сезону человек в тени. Характеристика душности погоды. При расчете учитывается влияние влажности воздуха и скорости ветра на теплоощущения человека.
Tes - Эффективная температура на солнце - температура, которую ощущает человек, с поправкой на солнечный нагрев. Характеристика знойности погоды. Зависит от высоты солнца над горизонтом, облачности и скорости ветра. Ночью, в пасмурную погоду, а также при ветре 12 м/с и более поправка равна нулю.
P - Атмосферное давление - приведенное к уровню моря атмосферное давление.
Po - Атмосферное давление - измеренное на уровне метеостанции атмосферное давление.
Tmin - Минимальная температура - минимум температуры воздуха на высоте 2 м над землей.
Tmax - Максимальная температура - максимум температуры воздуха на высоте 2 м над землей.
R - Количество осадков - Количество выпавших осадков за период времени, мм. При наведении курсора мыши на число - период времени, за который выпало указанное количество осадков.
R24 - Количество осадков - Количество выпавших осадков за 24 часа, мм.
S - Снежный покров - Высота снежного покрова, см. При наведении курсора мыши на число - состояние снежного покрова и степень покрытия местности в баллах.